User: anonymous   Login
Location: Unspecified
(0.0000°N, 0.0000°E)
Time: 22:28:03
(UTC+02:00)
Language:

Cosmos 773 Rocket - Orbit

View from above orbital plane
View from above orbital plane
View from above satellite
View from above satellite

Ground track
Ground track

The orbit data is extracted from the following two-line orbital elements,

1 08344U 75094B   16272.39684061 -.00000006  00000-0  67350-5 0  9992
2 08344  74.0558 248.0040 0022659 217.7237 142.2330 14.39065779148022
Epoch (UTC): 28 September 2016 09:31:27
Eccentricity: 0.0022659
inclination: 74.0558°
perigee height: 745 km
apogee height: 778 km
right ascension of ascending node: 248.0040°
argument of perigee: 217.7237°
revolutions per day: 14.39065779
mean anomaly at epoch: 142.2330°
orbit number at epoch: 14802

The dashed part of the orbit path shows where the satellite is in the earth's shadow,  

DLR